Regional Weather Roundup
Issued by NWS

Home | Current Version | Previous Version | Text Only | Print | Product List | Glossary Off
Versions: 1 2 3 4 5 6 7 8 9 10 11 12 13 14 15 16 17 18 19 20 21 22 23 24 25 26 27 28 29 30 31 32 33 34 35 36 37 38 39 40 41 42 43 44 45 46 47 48 49 50

000
ASUS43 KLMK 292110
RWRKY
KENTUCKY REGIONAL WEATHER ROUNDUP
NATIONAL WEATHER SERVICE LOUISVILLE KY
500 PM EDT WED JUL 29 2015

NOTE "FAIR" INDICATES FEW OR NO CLOUDS BELOW 12,000 FEET
WITH NO SIGNIFICANT WEATHER AND/OR OBSTRUCTIONS TO VISIBILITY.

KYZ001>023-026-027-061>063-070>075-292200-
WESTERN AND SOUTH CENTRAL KENTUCKY

CITY           SKY/WX    TMP DP  RH WIND       PRES   REMARKS
PADUCAH        MOSUNNY   95  77  55 W8        29.95F HX 109
HENDERSON      MOSUNNY   93  79  62 N7        29.93F HX 110
OWENSBORO      MOSUNNY   94  79  61 VRB6      29.95F HX 111
HOPKINSVILLE   SUNNY     90  78  68 NW6       29.97F HX 105
BOWLING GREEN  PTSUNNY   93  77  59 W9        29.96F HX 107
GLASGOW        PTSUNNY  N/A N/A N/A W3        29.97S
$$

KYZ024-025-028>034-038-045-046-053-292200-
NORTH CENTRAL KENTUCKY

CITY           SKY/WX    TMP DP  RH WIND       PRES   REMARKS
LOUISVILLE/SDF PTSUNNY   95  76  53 VRB6      29.92F HX 108
LOUISVILLE/LOU MOSUNNY   93  75  55 W7        29.93F HX 104
FORT KNOX      MOSUNNY   92  77  61 SW9       29.94F HX 106
$$

KYZ035>037-039>044-047>052-055>060-089>105-292200-
NORTHEAST KENTUCKY

CITY           SKY/WX    TMP DP  RH WIND       PRES   REMARKS
LEXINGTON      CLOUDY    78  73  84 S6        29.98S
COVINGTON      CLOUDY    77  74  90 S3        29.95F
FRANKFORT      PTSUNNY   82  76  81 SW5       29.95F
$$

KYZ054-064>069-076>088-106>120-292200-
SOUTHEAST KENTUCKY

CITY           SKY/WX    TMP DP  RH WIND       PRES   REMARKS
JACKSON        MOSUNNY   87  72  60 CALM      29.99F HX  93
LONDON         MOSUNNY   90  70  51 VRB3      30.00F HX  95
SOMERSET       CLOUDY    88  72  58 CALM      29.99F HX  94
MIDDLESBORO    MOSUNNY   89  72  56 N5        29.99F HX  96
MONTICELLO     PTCLDY    93  76  57 CALM      30.00F HX 105
$$



USA.gov is the U.S. government's official web portal to all federal, state and local government web resources and services.